Mason County (3I2)

 

Airport Diagram
No Airport Diagram Available
Current Weather/Forecast (VFR Conditions)
METAR K3I2 182255Z AUTO 21005KT 10SM CLR 17/00 A2988 RMK AO2 T01690003
TAF

Airport Information

All Charts
General
Chart Name View
TAKEOFF MINIMUMS
ALTERNATE MINIMUMS
TAKEOFF MINIMUMS
ALTERNATE MINIMUMS

Approaches
Chart Name Download
RNAV (GPS) RWY 07
RNAV (GPS) RWY 25
RNAV (GPS) RWY 07
RNAV (GPS) RWY 25


Airport Statistics
Departures Arrivals Local
All Collected Stats since June 2016: 3 2 0
2021 Stats: 0 0 0
April Stats: 0 0 0

Inbound Traffic (Arrivals) - 0

No inbound traffic.


Outbound Traffic (Departures) - 0

No outbound traffic.


Local Traffic (Pattern) - 0

No local traffic.